Dewpoint
49 50 51 50 50 51 51 51 52 53 53 51 51 52 52 52 51 50 48 50 51 53 52 53 53 51 46 42 43 50 53 52 51 49 46 41 37 39 34 29 27 26 26 26 25 24 25
51 50 50 50 50 50 50 50 52 52 53 52 51 52 52 52 52 51 48 50 49 50 51 50 51 51 42 39 47 50 49 48 47 44 38 36 37 39 27 26 26 27 26 25 24 23 24
51 49 49 50 50 51 51 51 51 52 53 52 52 52 52 52 50 52 50 49 48 49 50 46 45 39 38 37 45 48 49 45 41 37 35 37 35 33 27 26 28 27 24 25 25 24 22
50 50 50 51 50 51 51 52 52 52 53 53 52 52 52 52 51 48 50 51 48 47 45 45 43 37 34 43 46 44 44 41 41 37 37 32 33 28 26 28 26 24 25 20 24 27 18
52 51 51 51 51 51 51 51 52 52 53 53 53 53 52 52 51 47 45 47 49 49 48 44 37 34 32 41 39 39 38 35 32 30 30 30 29 27 27 24 22 23 19 21 20 25 23
52 52 52 52 51 51 51 51 52 52 52 53 53 52 52 52 51 48 45 44 43 43 42 40 36 31 35 34 36 34 34 32 30 30 28 26 27 24 25 22 14 17 20 21 19 24 23
52 52 52 52 52 52 51 51 51 52 52 52 52 53 52 52 49 49 47 43 38 33 35 33 34 34 34 35 37 35 35 31 28 25 21 26 22 21 21 20 17 20 18 22 25 25 22
51 51 51 52 51 52 52 51 51 51 52 52 52 52 52 52 46 47 44 39 42 42 31 34 34 34 35 35 30 32 36 26 24 21 24 22 19 23 25 23 19 18 20 21 23 24 18
50 51 50 51 52 52 52 52 51 51 51 52 52 51 52 50 44 42 40 41 45 44 31 30 32 33 34 33 32 30 34 29 25 23 23 20 21 24 25 26 20 23 19 20 19 23 23
48 49 50 50 51 51 52 53 52 51 51 51 52 51 50 47 40 39 40 43 45 44 24 27 31 31 33 32 27 33 33 31 26 24 24 25 30 26 25 25 25 18 26 23 24 20 11
48 48 49 50 51 52 52 53 52 51 51 51 52 50 48 47 42 39 42 44 42 41 16 27 30 33 32 30 29 26 33 30 27 26 24 28 29 27 24 28 28 21 27 24 23 22 16
50 49 49 51 51 51 52 52 53 52 51 51 51 47 47 43 44 44 45 45 40 23 18 27 30 27 26 28 27 28 29 31 31 29 29 29 31 31 29 28 28 28 25 23 23 24 7
51 50 51 51 51 51 51 52 52 52 50 50 48 45 44 44 42 45 44 41 24 18 24 25 28 27 26 25 25 27 26 26 26 15 22 28 28 30 31 29 28 27 27 19 13 11 5
50 50 51 51 52 52 52 52 52 52 50 49 45 46 45 45 46 45 42 27 18 24 26 29 29 27 26 27 25 25 27 25 27 27 28 15 9 30 32 30 28 25 27 23 6 18 18
49 50 52 52 51 52 52 52 52 52 50 48 46 45 43 42 45 43 33 24 24 28 28 28 27 25 24 25 25 25 26 26 29 29 21 24 25 31 33 34 32 27 27 26 21 25 19
49 50 51 52 51 51 52 52 52 52 50 48 43 43 39 44 45 43 29 28 28 32 32 29 23 24 21 23 24 25 26 29 29 30 30 26 24 30 32 34 33 32 30 17 25 4 11
50 50 50 51 52 51 52 52 52 52 50 47 43 37 41 44 44 34 27 29 31 33 34 31 29 25 25 24 24 22 26 29 30 29 30 28 27 28 30 29 29 25 27 28 28 27 21
50 51 50 51 51 51 51 52 52 51 49 45 41 19 40 44 28 33 30 32 33 33 33 32 31 29 26 24 24 25 27 30 32 31 28 29 28 26 21 31 32 31 29 25 20 24 25
50 50 51 51 51 51 51 52 52 51 49 40 31 34 43 39 23 29 32 31 34 32 31 31 29 29 28 24 22 24 31 34 33 33 30 31 24 22 20 25 29 27 29 30 28 27 24
50 51 52 52 51 51 51 51 52 50 49 43 37 23 30 32 32 29 29 28 31 33 32 31 29 29 26 24 25 23 28 33 34 34 33 32 25 21 16 17 25 24 27 29 28 25 24
50 51 52 52 51 51 51 51 51 49 49 43 35 29 31 23 26 28 29 27 26 28 31 31 28 27 25 20 21 20 27 32 35 35 33 30 23 24 23 23 23 20 20 25 28 27 22
50 50 51 52 52 52 51 51 51 48 48 36 32 31 34 30 29 29 26 23 25 27 27 28 27 26 26 23 21 18 21 22 24 34 31 31 17 25 21 21 22 20 21 20 19 27 28
50 50 51 52 52 51 51 51 51 48 45 39 39 36 34 36 30 29 24 25 27 29 30 30 29 28 26 28 30 30 30 29 28 30 30 30 25 23 17 23 20 7 12 17 19 20 20
48 48 50 51 51 51 51 51 51 49 46 43 39 38 36 32 30 29 27 28 29 29 29 30 30 29 31 33 32 31 31 29 29 28 28 27 26 25 22 22 6 12 18 17 17 18 20
49 48 49 49 50 51 51 51 51 50 48 43 42 39 37 33 32 30 27 28 28 28 25 27 31 33 34 32 25 22 22 21 26 29 29 29 26 22 18 20 18 15 17 17 15 15 19
49 49 49 48 49 50 50 51 51 51 48 45 42 41 39 35 33 26 27 28 28 27 27 27 32 35 33 30 25 17 15 16 19 26 29 29 28 24 23 19 12 15 19 21 19 15 21
50 50 49 49 49 49 50 51 51 52 49 46 44 41 40 37 37 33 31 30 30 31 31 27 30 32 33 28 24 22 21 16 16 18 23 26 26 24 24 22 22 24 21 23 13 17 24
50 50 49 49 48 49 50 51 51 51 51 48 46 42 41 40 40 37 32 32 32 32 31 30 32 32 31 28 27 26 23 20 17 20 24 22 22 23 24 22 18 24 23 17 24 26 25
51 50 50 49 49 49 50 51 51 52 52 48 46 43 41 40 40 41 40 38 36 35 36 33 33 31 32 30 30 27 23 22 20 17 25 19 22 23 23 21 25 25 25 27 27 26 27
Wind_Speed
17 17 17 17 17 17 17 18 18 19 20 21 19 19 20 19 19 18 21 19 20 19 19 21 22 14 5 10 6 7 7 9 9 7 6 2 10 6 14 8 7 6 3 8 9 16 13
18 18 17 18 17 17 17 17 17 18 18 19 19 17 16 16 16 19 17 16 17 17 14 3 1 2 10 22 6 8 5 8 6 6 9 5 9 11 8 7 6 7 11 7 11 12 9
19 19 18 18 18 17 17 17 16 18 18 17 18 17 15 12 13 17 17 17 11 10 12 13 16 19 28 12 4 3 5 3 5 8 7 11 9 7 5 17 11 16 13 11 11 5 4
19 19 19 19 18 18 17 16 16 16 17 18 16 17 15 14 13 13 14 15 14 11 7 3 4 12 13 4 6 3 10 11 18 17 12 5 4 10 8 16 7 4 4 5 3 4 1
19 20 20 20 19 19 18 17 16 16 16 16 17 16 16 17 14 13 17 18 18 16 7 5 3 10 8 2 1 8 13 6 3 3 1 4 6 7 7 13 8 3 5 6 4 1 2
20 20 21 21 21 20 19 18 17 15 15 15 16 17 15 14 15 14 14 16 15 13 1 1 8 8 6 6 3 5 5 6 2 1 3 8 7 6 4 5 14 9 7 4 6 2 1
20 21 21 22 23 22 22 20 18 17 15 14 14 14 16 16 14 14 10 6 7 11 17 14 8 7 3 6 2 10 7 5 1 3 9 7 12 7 1 1 5 8 10 11 3 1 2
20 21 22 23 24 24 24 23 21 18 17 16 14 14 13 14 13 14 4 6 2 1 10 12 13 7 7 4 11 19 11 1 4 8 7 9 10 4 12 6 8 11 17 5 2 0 1
18 20 22 23 24 25 25 24 23 20 18 16 16 14 14 14 8 5 7 4 2 2 5 10 6 6 6 10 6 12 9 6 17 19 14 11 2 10 3 19 21 14 10 5 3 2 2
17 19 21 24 25 26 26 25 24 21 18 16 14 14 13 16 1 1 3 1 1 2 6 16 12 6 7 2 10 5 7 1 5 12 11 9 13 10 13 13 8 11 5 6 5 4 2
16 18 20 22 24 25 26 26 25 23 19 15 12 12 12 7 1 2 2 5 3 2 5 13 9 4 5 7 3 13 6 16 9 6 6 3 12 13 13 6 6 5 3 5 3 5 2
17 18 18 21 23 24 26 28 26 23 20 13 9 10 8 4 4 2 2 4 2 3 7 6 6 3 6 12 4 1 5 8 3 17 18 7 5 5 3 4 8 5 4 5 5 4 2
16 18 19 21 23 24 26 28 27 25 21 12 8 7 5 3 1 4 3 3 4 9 2 3 2 4 10 5 6 6 9 11 5 5 7 6 7 3 3 2 3 2 4 3 1 2 4
16 18 19 20 23 25 26 27 28 25 22 11 7 6 5 4 2 3 3 4 12 3 1 2 3 3 3 4 3 4 4 7 12 6 5 4 2 5 10 4 2 3 3 4 5 5 3
16 18 19 20 22 25 27 28 28 25 21 12 7 1 2 3 1 2 5 12 3 3 3 4 3 1 1 1 2 3 5 3 3 7 4 4 2 1 3 4 4 2 1 2 4 2 2
16 17 18 20 23 24 26 27 29 27 22 12 2 2 3 0 2 3 9 7 3 3 5 3 3 2 2 2 1 2 2 2 3 1 1 2 5 1 1 2 1 0 1 2 3 1 4
16 17 18 20 22 24 26 28 29 29 27 4 1 2 2 4 2 9 8 5 4 1 3 2 5 4 5 2 4 2 2 2 4 3 4 2 5 4 2 6 6 3 3 2 2 3 1
14 16 18 18 21 23 25 28 29 29 29 3 2 4 1 3 7 5 4 3 2 2 1 1 2 5 5 8 5 3 3 3 4 2 2 3 3 3 2 3 3 5 6 7 5 5 4
13 15 17 17 19 22 24 26 28 28 19 5 3 3 2 2 5 5 2 3 3 0 2 2 2 3 2 2 3 4 4 5 6 5 2 5 0 3 3 3 2 4 6 5 4 4 10
11 13 14 16 18 20 22 25 28 29 22 2 3 3 6 8 2 5 3 2 2 2 1 1 2 1 0 3 2 4 3 1 1 2 3 3 2 5 5 0 2 4 7 11 10 7 5
12 13 13 13 15 17 20 23 27 32 31 2 5 2 1 5 6 6 3 1 1 1 0 1 2 1 1 2 2 3 5 4 4 4 2 3 3 3 7 10 9 13 14 16 23 21 15
11 13 13 13 14 15 17 21 25 31 24 7 3 3 2 1 1 2 2 1 2 1 1 2 2 2 2 0 1 2 1 3 4 4 5 3 3 1 5 5 4 14 19 22 25 21 27
11 12 13 13 13 13 14 16 21 28 15 6 3 2 2 1 3 2 1 1 1 1 1 2 1 3 3 1 2 2 2 3 2 4 6 4 2 1 5 7 12 17 17 21 12 10 22
13 13 12 13 13 14 14 13 14 18 15 2 2 1 2 1 1 0 1 1 1 0 2 1 1 1 1 6 7 4 4 6 3 4 3 3 5 3 6 6 5 2 3 4 13 15 20
16 14 13 13 13 12 13 10 10 12 14 5 2 2 2 2 1 4 3 1 3 2 2 2 1 1 3 3 3 3 1 1 1 4 2 1 5 2 4 4 13 5 1 1 2 4 6
19 17 15 15 14 13 12 6 5 6 8 3 3 1 1 3 3 3 3 3 2 2 3 2 1 3 1 2 1 2 3 2 2 1 6 2 4 6 2 4 5 2 1 1 1 4 9
20 20 19 17 15 13 10 7 6 4 1 2 2 3 2 3 3 2 5 4 4 3 2 1 1 1 2 1 3 5 4 1 3 3 4 6 3 15 12 6 11 7 2 3 4 2 4
23 22 21 19 17 13 9 7 8 8 6 1 3 2 1 3 6 3 3 4 3 4 4 4 1 1 1 2 3 3 4 4 3 5 6 10 11 8 7 7 13 4 1 2 2 2 0
25 23 23 20 17 15 11 8 7 6 7 6 3 1 1 3 4 2 5 5 4 4 4 5 3 5 8 4 3 2 3 2 4 5 3 6 10 8 15 10 5 8 5 3 4 7 6
Wind_Direction
25 20 19 19 16 13 10 7 359 359 0 4 16 20 28 15 14 21 34 36 49 61 57 91 111 134 60 66 49 303 336 31 11 324 286 329 192 181 144 151 87 97 47 50 50 77 75
23 23 19 16 15 12 10 9 1 358 1 5 11 24 34 24 358 353 14 38 42 50 38 74 140 149 84 62 282 233 335 59 239 302 304 287 211 204 112 132 86 118 97 63 51 61 49
24 21 18 15 13 12 8 7 5 358 357 3 7 16 13 17 359 349 348 349 354 17 26 109 116 97 73 112 189 91 158 251 271 259 294 292 251 235 113 100 121 121 92 61 34 38 76
24 20 16 13 12 9 9 5 3 359 356 355 2 3 4 358 355 347 333 329 321 348 22 17 244 49 79 192 187 329 182 275 265 253 243 280 289 117 110 121 104 80 95 115 343 4 206
21 18 15 12 11 9 8 3 1 359 356 353 352 356 357 348 346 336 325 323 318 318 289 301 89 77 45 98 242 245 191 220 200 271 263 271 77 80 94 116 103 160 143 126 143 357 161
21 18 15 12 9 7 7 4 358 356 354 348 347 344 348 345 336 325 317 307 306 341 106 290 16 73 14 360 345 347 295 204 217 24 50 44 60 101 90 116 155 169 145 125 146 200 155
20 17 14 12 8 4 2 3 359 352 349 345 341 340 336 340 340 335 335 350 11 34 53 87 62 93 23 325 32 22 342 313 63 32 107 45 94 117 84 216 129 162 125 126 121 303 162
19 17 14 11 7 3 360 359 358 354 347 341 337 336 334 332 328 337 49 71 109 266 56 55 59 43 27 12 50 6 7 41 58 92 95 70 79 339 318 26 111 131 122 110 107 45 44
11 11 10 6 2 359 357 357 356 354 348 341 335 336 336 333 325 38 87 94 320 2 58 15 50 36 342 36 37 1 17 66 90 78 88 92 354 334 97 54 93 69 111 126 135 97 8
9 7 3 359 357 356 354 353 353 353 347 340 333 333 338 336 67 24 46 65 286 288 72 354 2 24 350 63 22 345 11 38 66 98 76 57 1 61 59 64 46 98 18 84 86 132 178
6 6 358 353 353 351 351 351 353 354 347 338 332 332 335 28 341 84 298 335 334 76 73 323 329 305 338 99 164 3 359 43 76 75 125 71 41 34 52 8 17 131 74 93 80 100 76
357 358 354 351 350 351 350 349 352 355 353 344 332 335 344 30 48 10 327 351 27 61 62 352 328 357 40 33 50 69 33 52 68 64 69 82 59 53 19 3 66 123 90 55 53 63 236
353 355 353 350 349 350 351 349 350 356 356 354 332 330 26 28 140 331 345 27 39 63 303 17 337 29 64 57 24 40 52 54 68 103 46 25 38 16 12 358 30 49 70 65 32 218 223
346 349 350 351 349 347 348 350 349 355 353 349 334 338 50 71 60 32 23 62 67 266 336 288 306 74 68 25 44 46 56 39 22 57 110 98 122 10 343 47 12 41 127 164 201 196 231
338 342 344 348 351 348 347 349 349 353 352 344 335 337 113 352 50 91 81 57 110 258 345 331 323 316 65 65 118 91 72 108 38 26 110 135 68 266 40 4 19 344 173 137 109 61 288
336 335 340 344 348 349 347 349 349 351 351 340 355 342 342 148 100 84 74 101 108 9 354 346 325 2 102 34 81 93 136 348 132 87 36 126 96 339 326 3 279 157 170 136 36 250 264
334 332 336 340 342 345 345 346 349 351 348 352 19 56 308 134 99 60 80 83 117 36 27 28 23 25 45 23 32 78 70 40 21 341 343 117 125 188 149 206 193 168 164 96 105 141 232
328 331 333 337 338 342 344 345 348 354 350 61 16 47 321 136 46 46 66 94 157 152 287 346 6 48 43 22 27 46 115 50 13 22 66 37 105 165 183 188 176 182 180 162 162 196 200
319 326 331 332 335 339 343 345 347 352 12 345 55 333 11 59 60 57 130 62 49 175 81 64 95 41 23 57 105 54 55 344 14 36 73 351 193 130 330 322 330 235 219 206 121 114 214
305 316 325 329 333 338 343 347 347 347 354 98 50 26 358 46 72 97 103 71 86 349 345 343 150 205 262 154 121 144 133 187 66 61 10 24 238 210 216 201 118 218 222 213 197 194 212
300 309 316 324 333 341 347 351 352 348 348 100 40 67 342 10 30 64 103 33 65 64 242 320 302 249 104 144 155 148 148 170 200 190 157 139 243 307 279 270 256 243 229 213 215 216 217
286 295 306 318 329 341 350 352 355 358 354 70 59 38 31 72 283 27 55 88 63 34 172 173 169 354 245 194 30 173 12 203 221 189 189 181 250 308 284 321 273 261 255 243 238 231 239
270 282 295 305 316 328 344 357 3 7 16 67 16 48 91 352 332 10 322 200 145 68 8 54 5 336 270 237 316 263 212 265 174 182 192 182 189 40 266 331 322 284 257 232 226 217 224
256 266 280 292 301 314 327 347 6 17 30 76 38 33 69 210 112 70 260 341 281 185 232 187 89 200 286 322 302 267 282 274 265 254 194 190 177 189 279 331 264 265 245 244 225 249 223
250 257 264 275 284 294 304 327 350 11 17 50 29 75 83 259 206 164 151 197 296 267 278 258 352 167 319 335 334 324 340 315 22 43 8 30 161 241 252 231 297 336 11 320 224 13 253
247 250 259 268 281 286 293 306 318 347 15 59 52 356 49 149 207 136 165 177 210 236 317 266 339 337 32 141 142 237 258 249 252 337 16 95 94 195 188 248 265 324 282 326 283 261 20
240 248 252 256 268 277 285 292 294 259 49 34 308 114 112 291 257 174 186 181 161 160 208 243 277 345 356 183 195 210 233 183 240 218 166 144 194 223 233 263 278 276 234 328 220 224 8
234 239 246 252 260 263 254 261 286 247 198 176 292 300 127 180 267 245 184 181 157 168 186 177 117 160 120 250 246 263 236 226 222 183 185 186 174 194 187 231 264 195 105 231 178 248 202
232 232 238 243 247 254 244 246 240 239 215 177 221 257 314 244 262 262 261 240 224 210 170 195 191 165 198 187 227 276 271 275 226 256 166 232 199 190 195 220 209 191 184 164 218 248 230